Location: La Fredeussais
(48.1780°N, 1.3980°W)
Time: 16:52:37
(UTC+00:00)

Landsat 7 - Pass Details

Date: 09 May 2021
Orbit: 701 x 703 km, 98.0° (Epoch: 24 June)

Event Time Altitude Azimuth Distance (km) Brightness Sun altitude
Exits shadow 20:36:04 - 158° (SSE) 2,211 5.8 -9.8°
Reaches altitude 10° 20:36:11 10° 158° (SSE) 2,166 5.8 -9.8°
Maximum altitude 20:40:55 75° 74° (ENE) 734 3.8 -10.4°
Drops below altitude 10° 20:45:41 10° 349° (N) 2,183 7.2 -11.0°
Sets 20:47:58 0° 348° (NNW) 3,106 8.1 -11.3°
